VK2GTH Weather Reports


time (UTC)temp
C
wind
direction
speed
KPH
gust
KPH
rain 1hr
cm
rain 24hr
cm
rain mn
cm
humidity
%
barometer
mb
20260831054018 19 154 4.8 8.0 0.00 0.00 0.00 62 1029.6
20260831053035 18 136 3.2 9.7 0.00 0.00 0.00 62 1029.6
20260831052031 20 138 4.8 11.3 0.00 0.00 0.00 60 1029.5
20260831051027 20 145 4.8 11.3 0.00 0.00 0.00 59 1029.6
20260831050044 20 137 3.2 9.7 0.00 0.00 0.00 60 1029.7
20260831045020 20 130 4.8 9.7 0.00 0.00 0.00 59 1029.6
20260831044117 20 173 4.8 9.7 0.00 0.00 0.00 61 1029.7
20260831043032 20 169 3.2 8.0 0.00 0.00 0.00 60 1029.8
20260831042029 20 290 3.2 4.8 0.00 0.00 0.00 60 1029.9
20260831041025 20 131 3.2 6.4 0.00 0.00 0.00 59 1029.9
20260831040021 20 177 1.6 8.0 0.00 0.00 0.00 60 1030.0
20260831035018 20 177 4.8 12.9 0.00 0.00 0.00 60 1030.0
20260831034034 19 229 3.2 6.4 0.00 0.00 0.00 61 1030.3
20260831033111 18 213 3.2 9.7 0.00 0.00 0.00 59 1030.1
20260831032047 19 214 4.8 9.7 0.00 0.00 0.00 59 1030.3
20260831031023 19 225 3.2 6.4 0.00 0.00 0.00 61 1030.4
20260831030020 18 299 3.2 6.4 0.00 0.00 0.00 59 1030.7
20260831025036 20 283 3.2 9.7 0.00 0.00 0.00 56 1030.7
20260831024032 19 33 1.6 6.4 0.00 0.00 0.00 57 1030.9
20260831023029 19 140 4.8 9.7 0.00 0.00 0.00 57 1031.1
20260831022025 18 106 6.4 12.9 0.00 0.00 0.00 57 1031.2
20260831021041 18 280 3.2 9.7 0.00 0.00 0.00 58 1031.4
20260831020017 18 182 3.2 8.0 0.00 0.00 0.00 56 1031.5
20260831015033 18 273 3.2 8.0 0.00 0.00 0.00 56 1031.6
20260831014030 18 143 3.2 8.0 0.00 0.00 0.00 55 1031.7
20260831013026 18 192 3.2 6.4 0.00 0.00 0.00 58 1031.7
20260831012023 18 169 3.2 6.4 0.00 0.00 0.00 58 1031.9
20260831011019 18 198 1.6 6.4 0.00 0.00 0.00 61 1032.0
20260831010035 18 132 6.4 16.1 0.00 0.00 0.00 62 1032.0
20260831005031 18 105 3.2 8.0 0.00 0.00 0.00 64 1032.1
20260831004108 18 146 3.2 6.4 0.00 0.00 0.00 65 1032.0
20260831003044 18 118 3.2 9.7 0.00 0.00 0.00 66 1032.1
20260831002020 18 104 4.8 11.3 0.00 0.00 0.00 68 1032.0
20260831001037 17 78 3.2 4.8 0.00 0.00 0.00 72 1032.1
20260830235029 16 105 3.2 6.4 0.00 0.00 0.00 87 1032.2
20260830234025 16 117 3.2 6.4 0.00 0.00 0.00 93 1032.1
20260830233021 15 102 3.2 6.4 0.00 0.00 0.00 97 1032.2
20260830232038 15 102 3.2 4.8 0.00 0.00 0.00 99 1032.3
20260830231115 13 89 3.2 4.8 0.00 0.00 0.00 99 1032.3
20260830230030 13 59 0.0 3.2 0.00 0.00 0.00 99 1032.3
20260830225026 12 47 0.0 3.2 0.00 0.00 0.00 99 1032.4
20260830224023 10 61 3.2 4.8 0.00 0.00 0.00 99 1032.4
20260830223019 8 57 3.2 3.2 0.00 0.00 0.00 99 1032.4
20260830222056 8 59 3.2 3.2 0.00 0.00 0.00 99 1032.3
20260830221032 7 57 3.2 6.4 0.00 0.00 0.00 99 1032.3
20260830220048 6 23 1.6 3.2 0.00 0.00 0.00 99 1032.3
20260830215023 5 44 3.2 3.2 0.00 0.00 0.00 99 1032.3
20260830214020 5 48 3.2 4.8 0.00 0.00 0.00 99 1032.2
20260830213037 4 53 3.2 4.8 0.00 0.00 0.00 99 1032.1
20260830212032 3 40 3.2 4.8 0.00 0.00 0.00 99 1032.1
20260830211029 2 51 3.2 4.8 0.00 0.00 0.00 99 1032.1
20260830210025 2 39 4.8 6.4 0.00 0.00 0.00 99 1031.9
20260830205101 2 38 3.2 4.8 0.00 0.00 0.00 99 1031.9
20260830204017 2 39 3.2 3.2 0.00 0.00 0.00 99 1031.8
20260830203034 2 29 3.2 4.8 0.00 0.00 0.00 99 1031.6
20260830202031 2 48 3.2 4.8 0.00 0.00 0.00 99 1031.5
20260830201027 2 43 3.2 4.8 0.00 0.00 0.00 99 1031.3
20260830200023 2 39 3.2 4.8 0.00 0.00 0.00 99 1031.2
20260830195019 1 39 3.2 4.8 0.00 0.00 0.00 99 1031.1
20260830194035 2 51 3.2 4.8 0.00 0.00 0.00 99 1031.0
20260830193032 2 44 3.2 6.4 0.00 0.00 0.00 99 1030.8
20260830192029 2 41 4.8 6.4 0.00 0.00 0.00 99 1030.7
20260830191024 2 45 4.8 4.8 0.00 0.00 0.00 99 1030.6
20260830190020 2 49 3.2 4.8 0.00 0.00 0.00 99 1030.5
20260830185057 2 47 3.2 4.8 0.00 0.00 0.00 99 1030.4
20260830184033 2 37 3.2 3.2 0.00 0.00 0.00 99 1030.5
20260830183029 2 32 3.2 3.2 0.00 0.00 0.00 99 1030.2
20260830182026 2 46 3.2 3.2 0.00 0.00 0.00 99 1030.3
20260830181043 3 32 3.2 4.8 0.00 0.00 0.00 99 1030.1
20260830180018 3 33 3.2 4.8 0.00 0.00 0.00 99 1030.3
20260830175055 3 51 3.2 4.8 0.00 0.00 0.00 99 1030.3
20260830174030 2 39 3.2 3.2 0.00 0.00 0.00 99 1030.3
20260830173026 2 44 3.2 4.8 0.00 0.00 0.00 99 1030.4
20260830172023 3 44 3.2 4.8 0.00 0.00 0.00 99 1030.5
20260830171020 3 43 3.2 3.2 0.00 0.00 0.00 99 1030.6
20260830170035 3 35 3.2 4.8 0.00 0.00 0.00 99 1030.6
20260830165031 3 52 3.2 4.8 0.00 0.00 0.00 99 1030.5
20260830164028 3 51 3.2 3.2 0.00 0.00 0.00 99 1030.5
20260830163024 3 34 3.2 4.8 0.00 0.00 0.00 99 1030.6
20260830162020 3 52 3.2 4.8 0.00 0.00 0.00 99 1030.6
20260830161017 3 46 3.2 3.2 0.00 0.00 0.00 99 1030.6
20260830160033 3 30 3.2 4.8 0.00 0.00 0.00 99 1030.8
20260830155029 3 37 3.2 4.8 0.00 0.00 0.00 99 1030.9
20260830154026 3 44 3.2 3.2 0.00 0.00 0.00 99 1030.9
20260830153022 3 55 3.2 6.4 0.00 0.00 0.00 99 1030.9
20260830152018 4 39 3.2 4.8 0.00 0.00 0.00 99 1031.0
20260830151034 4 33 3.2 4.8 0.00 0.00 0.00 99 1031.0
20260830150031 5 35 3.2 4.8 0.00 0.00 0.00 99 1030.9
20260830145047 5 43 3.2 4.8 0.00 0.00 0.00 99 1030.8
20260830144023 5 50 3.2 4.8 0.00 0.00 0.00 99 1030.9
20260830143019 5 61 3.2 3.2 0.00 0.00 0.00 99 1031.0
20260830142056 4 38 3.2 3.2 0.00 0.00 0.00 99 1031.0
20260830141032 4 41 1.6 3.2 0.00 0.00 0.00 99 1031.0
20260830140028 5 60 3.2 4.8 0.00 0.00 0.00 99 1031.1
20260830135044 5 26 3.2 4.8 0.00 0.00 0.00 99 1031.2
20260830134021 5 41 3.2 4.8 0.00 0.00 0.00 99 1031.2
20260830133037 5 51 3.2 4.8 0.00 0.00 0.00 99 1031.3
20260830132034 5 52 3.2 4.8 0.00 0.00 0.00 99 1031.4
20260830131029 5 42 1.6 3.2 0.00 0.00 0.00 99 1031.5
20260830130026 5 50 1.6 4.8 0.00 0.00 0.00 99 1031.3
20260830125042 5 27 1.6 4.8 0.00 0.00 0.00 99 1031.2
20260830124018 5 81 1.6 4.8 0.00 0.00 0.00 99 1031.4
20260830123035 5 45 4.8 6.4 0.00 0.00 0.00 99 1031.4
20260830122030 6 50 1.6 3.2 0.00 0.00 0.00 99 1031.4
20260830121027 6 41 3.2 6.4 0.00 0.00 0.00 99 1031.4
20260830120024 6 50 1.6 4.8 0.00 0.00 0.00 99 1031.5
20260830115020 6 48 3.2 4.8 0.00 0.00 0.00 99 1031.5
20260830114037 6 62 3.2 3.2 0.00 0.00 0.00 99 1031.5
20260830113032 6 61 3.2 3.2 0.00 0.00 0.00 99 1031.3
20260830112029 6 49 1.6 3.2 0.00 0.00 0.00 99 1031.4
20260830111025 6 64 3.2 3.2 0.00 0.00 0.00 99 1031.4
20260830110041 6 54 3.2 4.8 0.00 0.00 0.00 99 1031.2
20260830105039 7 57 1.6 3.2 0.00 0.00 0.00 99 1031.2
20260830104034 7 69 1.6 3.2 0.00 0.00 0.00 99 1031.2
20260830103030 7 62 3.2 3.2 0.00 0.00 0.00 99 1031.2
20260830102107 7 62 1.6 3.2 0.00 0.00 0.00 99 1031.1
20260830101023 7 68 1.6 3.2 0.00 0.00 0.00 99 1031.1
20260830100019 7 69 1.6 3.2 0.00 0.00 0.00 98 1031.0
20260830095035 8 59 3.2 4.8 0.00 0.00 0.00 98 1031.0
20260830094031 8 33 1.6 3.2 0.00 0.00 0.00 97 1030.8
20260830093028 8 59 1.6 3.2 0.00 0.00 0.00 97 1030.7
20260830092024 8 65 1.6 3.2 0.00 0.00 0.00 96 1030.5
20260830091020 9 48 1.6 3.2 0.00 0.00 0.00 96 1030.6
20260830090057 9 79 3.2 4.8 0.00 0.00 0.00 95 1030.5
20260830085033 10 78 0.0 1.6 0.00 0.00 0.00 94 1030.4
20260830084029 10 81 1.6 3.2 0.00 0.00 0.00 93 1030.3
20260830083026 10 90 1.6 3.2 0.00 0.00 0.00 92 1030.1
20260830082022 11 72 0.0 1.6 0.00 0.00 0.00 91 1030.0
20260830081019 11 79 1.6 3.2 0.00 0.00 0.00 90 1029.9
20260830080035 11 84 3.2 3.2 0.00 0.00 0.00 88 1029.9
20260830075030 12 137 0.0 1.6 0.00 0.00 0.00 86 1029.7
20260830074027 12 84 3.2 4.8 0.00 0.00 0.00 84 1029.7
20260830073024 13 85 1.6 3.2 0.00 0.00 0.00 82 1029.6
20260830072019 15 101 1.6 3.2 0.00 0.00 0.00 77 1029.6
20260830071056 15 120 1.6 3.2 0.00 0.00 0.00 75 1029.5
20260830070052 15 122 3.2 6.4 0.00 0.00 0.00 74 1029.5
20260830065028 16 131 1.6 8.0 0.00 0.00 0.00 71 1029.6
20260830064024 16 128 1.6 4.8 0.00 0.00 0.00 70 1029.5
20260830063020 16 158 3.2 6.4 0.00 0.00 0.00 68 1029.5
20260830062037 17 138 3.2 6.4 0.00 0.00 0.00 67 1029.6
20260830061033 17 161 3.2 8.0 0.00 0.00 0.00 66 1029.5
20260830060030 17 138 3.2 6.4 0.00 0.00 0.00 64 1029.4
20260830055026 18 158 3.2 8.0 0.00 0.00 0.00 62 1029.5